Overview Statistics Trail Chart Weather Telemetry Raw packets
 

This is the latest recevied weather packets stored in our database for station/object HOWARD. If no packets are shown the sender has not sent any weather packets the latest 10 day(s).

<< 2 3 4 5 6 7 8 >>
Time Temp. Humidity Pressure Rain* Wind** Luminosity Snow
1788576888 2.22° C 81% 1012.3 hPa 0 mm - - -
1788576288 2.78° C 79% 1012.1 hPa 0 mm - - -
1788575688 2.78° C 78% 1012.1 hPa 0 mm - - -
1788575088 3.33° C 76% 1012.1 hPa 0 mm - - -
1788574488 3.89° C 75% 1012.1 hPa 0.25 mm - - -
1788573889 3.89° C 74% 1012.2 hPa 0.25 mm - - -
1788573288 4.44° C 74% 1012.1 hPa 0.25 mm - - -
1788572688 4.44° C 74% 1012 hPa 0.25 mm - - -
1788572088 4.44° C 74% 1012 hPa 0.25 mm - - -
1788571488 4.44° C 73% 1011.8 hPa 0.25 mm - - -
1788570888 4.44° C 74% 1011.8 hPa 0 mm - - -
1788570288 4.44° C 74% 1011.9 hPa 0 mm - - -
1788569688 4.44° C 73% 1011.8 hPa 0 mm - - -
1788569088 3.89° C 76% 1011.9 hPa 0.25 mm - - -
1788568487 3.33° C 76% 1011.9 hPa 0.25 mm - - -
1788567888 3.33° C 77% 1011.8 hPa 0.25 mm - - -
1788567287 3.33° C 77% 1012.1 hPa 0.25 mm - - -
1788566687 3.33° C 75% 1012 hPa 0.51 mm - - -
1788566087 3.33° C 75% 1012 hPa 0.51 mm - - -
1788565488 3.33° C 74% 1012.1 hPa 0.51 mm - - -
1788564887 3.89° C 73% 1012.1 hPa 0.51 mm - - -
1788564287 4.44° C 74% 1011.3 hPa 0.76 mm - - -
1788563687 4.44° C 75% 1011.3 hPa 0.76 mm - - -
1788563087 3.89° C 74% 1011.2 hPa 0.76 mm - - -
1788562487 4.44° C 74% 1011.1 hPa 1.02 mm - - -

* Rain latest hour (hover to see other rain measurements)
** Current wind speed in m/s (hover to see current wind gust speed)